ONEWEB-0289, 49079

Orbit data source: Space-Track

ONEWEB-0289, 49079 is a payload satellite owned by One Web (NAA) (UK) in LEO that was launched on Sat, 21 Aug 2021 UTC via a SOYUZ-2-1B launch vehicle from the Tyuratam Missile And Space Complex (TTMTR). Payload-class satellites include a variety of spacecraft equipped with specific instruments for various scientific and technological missions. These include communications satellites like Starlink; space stations such as the ISS; scientific satellites like the Hubble; Earth observation satellites from companies like Planet Labs, Umbra, and HawkEye 360; GPS; miniature CubeSats for education and research; and military/defense satellites.

Loading next visibility...
Identifier
49079, 2021-075E
Orbit
LEO
Country
Flag of UKUK
Related business
Manufacturer
One Web
Mission
Operational Commercial Communications
Bus & Motor
ARROW, Unknown motor
Mass
148 kg wet, ~140 kg dry
Launch date (UTC)
2021-08-21 (5 years ago)
Launch vehicle
SOYUZ-2-1B
Launch site
Tyuratam Missile And Space Complex (TTMTR)
Object type
Payload
Rocket body
Debris
Shape & HBR
Trap Box + 2 Pan, 6.7 m
Radar Cross Section
3.464 m², Large (>1 m²)

Expand to show TLE details & history
Last TLE update: 9 hours ago

TLE from 9 hours ago
0 ONEWEB-0289
1 49079U 21075E   26130.16130922 -.00000040  00000-0 -13735-3 0  9998
2 49079  87.9175  13.4400 0001457  75.8508 284.2786 13.17650014229198
Epoch: 2026-05-10T03:52Z
TLE epoch observation values (Epoch: 2026-05-10T03:52:17.116Z)
Latitude
0.00004°
Longitude
87.40032°
Altitude
1,196.336 km
Speed
7.256 km/s
True Right ascension
00h 53m 45s
True Declination
0° 00' 00"
Sunlit
Object was in daylight at epoch
Visualization orbit readout
Latitude
Unknown
Longitude
Unknown
Altitude
Unknown
Speed
Unknown
Apparent Right ascension
Unknown
Apparent Declination
Unknown
Sunlit
N/A
Visualization observer readout
Local Sidereal Time
20:35:27
Azimuth
Unknown
Elevation
Unknown
Doppler factor
Unknown
Orbital elements
Apogee altitude
1,191.921 km
Perigee altitude
1,189.715 km
Semi-major axis
7,568.955 km
Eccentricity
0.00015
Inclination
87.9175°
RAAN
13.44°
Arg. of periapsis
75.8508°
True anomaly
284.26242°
Mean anomaly
284.2786°
Eccentric anomaly
284.27051°
Mean motion
3.29602 °/min
Orbital period
109.22 mins
BSTAR
-0.00013735
Loading maneuver chart data...
Computing Atmospheric mass density...
Loading historical data...
Loading historical data...
Loading historical data...
Loading historical data...
Loading historical data...
Loading historical data...
Loading historical data...

Documentation

Showing up to 5 results
|